www.pogodaiklimat.ru

Погода и климат >> Архив погоды >> Россия >> Волгоградская область >> Волгоград


АРХИВ ПОГОДЫ в Волгограде

Время (UTC), дата Ветер
(напр.,м/с)
 
Видим.   Явления Облачность Т
(С)
Тd
(С)
f
(%)
Тe
(С)
Тes
(С)
Комфортность P
(гПа)
Po
(гПа)
Тmin
(С)
Tmax
(С)
R
(мм)
R24
(мм)
S
(см)
21 21.06 З 4 10 км 6/0
[Ac trans]
+18.4 +15.5 83 +19 +19 по сезону 1004.0 986.2
00 22.06 З 2 10 км 5/0
[Ac trans]
+17.5 +14.6 83 +18 +18 тепло 1003.7 985.8
03 22.06 З 3 10 км 3/0
[Ci fib]
+18.2 +14.9 81 +19 +20 по сезону 1004.4 986.5 +15.5
06 22.06 З 3 10 км 4/0
[Ac trans]
+23.7 +15.9 62 +27 +34 жарко 1004.6 987.1
09 22.06 С 3
{14}
10 км гроза, ливневой дождь 8/8 900 м
[Cb cap]
+22.9 +18.0 74 +28 +31 душно 1005.2 987.6
12 22.06 СЗ 7-11
{14}
10 км {гроза, ливн. осадки} 5/5 1000 м
[Cu med, cong]
+26.4 +9.2 34 +27 +28 жарко 1005.0 987.6
15 22.06 СЗ 7
{13}
10 км 6/0
[Ci fib]
+24.2 +4.2 27 +24 +24 комфорт 1006.9 989.3 +27.0
18 22.06 СЗ 3
{13}
10 км 5/0
[Ci fib]
+18.3 +7.3 49 +19 +19 по сезону 1009.6 991.6
21 22.06 СЗ 2 10 км ясно +15.2 +8.2 63 +15 +15 прохладно 1011.0 992.8
00 23.06 З 1 10 км ясно +12.9 +8.4 74 +13 +13 прохладно 1011.5 993.1
03 23.06 Ю 2 10 км 5/0
[Ac trans]
+18.1 +7.6 50 +19 +20 по сезону 1011.5 993.5 +11.5
06 23.06 Ю 3 10 км 8/8 1000 м
[Sc]
+19.2 +7.3 46 +20 +22 прохладно 1012.2 994.2
09 23.06 З 9-12
{18}
10 км 8/8 1000 м
[Cb calv]
+24.4 +6.8 32 +24 +25 комфорт 1010.4 992.8
12 23.06 З 7-10
{18}
10 км 6/6 1000 м
[Cu hum]
+26.9 +7.0 28 +26 +28 жарко 1009.4 991.9
15 23.06 З 11-14
{15}
10 км 5/5 1000 м
[Cu hum]
+24.9 +9.4 37 +26 +26 жарко 1009.6 992.0 +27.3
18 23.06 З 2
{15}
10 км 6/0
[Ac trans]
+19.1 +10.4 57 +21 +21 комфорт 1009.9 992.0
21 23.06 ЮЗ 4 10 км 5/0
[Ac trans]
+16.9 +11.3 70 +16 +16 прохладно 1008.8 990.8
00 24.06 Ю 5 10 км 5/0
[Ci fib]
+16.7 +11.2 70 +16 +16 по сезону 1007.3 989.3
03 24.06 ЮЗ 5 10 км 9/0
[Ac trans]
+18.1 +14.4 79 +18 +18 по сезону 1006.0 988.1 +15.8
06 24.06 ЮЗ 10-13
{12}
10 км слабый дождь 10/0
[As op]
+20.5 +15.0 71 +23 +23 комфорт 1004.3 986.6
09 24.06 Ю 9-12
{13}
10 км слабый ливневой дождь 9/9 660 м
[Cb calv]
+19.1 +17.2 89 +20 +20 холодно 1001.9 984.2
12 24.06 -16
{18}
10 км в посл. час ливневой дождь н/о +22.3 +17.9 76 +27 +27 душно 1000.0 982.5
15 24.06 С 8-10
{17}
10 км {гроза, ливн. осадки} 8/4 600 м
[Sc Ac trans]
+19.7 +13.5 67 +21 +21 комфорт 1004.2 986.4 +23.0
18 24.06 С 5
{17}
10 км {гроза, ливн. осадки} 8/0
[Ci fib]
+15.8 +10.9 73 +15 +15 холодно 1007.9 989.8
21 24.06 СЗ 3 10 км 6/0
[Ci fib]
+11.0 +9.7 92 +9 +9 очень
холодно
1009.4 991.0
00 25.06 С 2 10 км 5/0
[Ci fib]
+11.4 +10.0 91 +10 +10 холодно 1010.4 992.0
03 25.06 Ю 1 10 км 8/0
[Ci fib]
+14.1 +10.7 80 +14 +16 холодно 1011.8 993.5 +10.4
06 25.06 С 2 10 км 8/0
[Ac trans]
+19.7 +10.0 53 +21 +27 комфорт 1012.3 994.4
09 25.06 СЗ 3 10 км 8/8 1000 м
[Cb calv]
+21.5 +9.6 47 +23 +26 комфорт 1012.6 994.8
12 25.06 З 6 10 км 8/4 1000 м
[Cu hum Ac trans]
+23.1 +10.0 43 +25 +27 комфорт 1012.5 994.8
15 25.06 З 4 10 км 8/0
[Ac trans]
+23.5 +10.1 43 +25 +25 комфорт 1012.7 995.0 +25.0
18 25.06 З 5 10 км 8/0
[Ac trans]
+20.6 +9.9 50 +22 +22 комфорт 1014.2 996.3
21 25.06 ЮЗ 4 10 км 8/8 1500 м
[Sc]
+19.0 +10.2 57 +20 +20 тепло 1014.9 996.9
00 26.06 ЮЗ 5 10 км слабый ливневой дождь 8/5 1000 м
[Cb calv Ac trans]
+18.7 +12.7 68 +19 +19 тепло 1014.9 996.9
03 26.06 ЮЗ 6 10 км {ливн. осадки} 8/3 1000 м
[Cb calv Ac trans]
+18.9 +14.3 75 +20 +20 по сезону 1015.1 997.1 +17.1
06 26.06 З 4 10 км 8/4 600 м
[Cu hum Ac trans]
+22.7 +16.3 67 +27 +30 душно 1015.2 997.4
09 26.06 З 5 10 км 9/5 1000 м
[Cu med, cong Ci fib]
+27.1 +14.2 45 +29 +33 жарко 1014.6 997.1
12 26.06 10 км н/о +29.0 +13.3 38 +31 +34 жарко 1014.0 996.6
15 26.06 З 4 10 км 5/0
[Ac trans]
+28.6 +12.8 38 +30 +31 жарко 1013.6 996.2 +29.8
18 26.06 ЮЗ 2 10 км ясно +24.5 +14.1 52 +27 +27 жарко 1013.9 996.2
21 26.06 Ю 3 10 км ясно +20.1 +13.7 67 +23 +23 комфорт 1014.2 996.3
00 27.06 Ю 3 10 км ясно +20.0 +12.4 62 +22 +22 комфорт 1014.2 996.3
03 27.06 ЮЗ 4 10 км ясно +21.7 +12.3 55 +24 +25 комфорт 1014.3 996.5 +18.4
06 27.06 ЮЗ 6 10 км ясно +28.4 +12.3 37 +30 +34 жарко 1014.0 996.6
09 27.06 ЮЗ 7-10
{10}
10 км 4/4 1500 м
[Cu hum]
+31.2 +9.4 26 +31 +34 жарко 1013.2 995.9
12 27.06 Ю 4
{16}
10 км 3/0
[Ac trans]
+32.2 +6.9 21 +31 +37 жарко 1011.6 994.4
15 27.06 ЮВ 7
{11}
10 км 3/0
[Ci fib]
+31.2 +7.9 23 +30 +30 жарко 1010.7 993.5 +33.2
18 27.06 ЮВ 3
{11}
10 км 5/0
[Ci fib]
+23.0 +9.1 41 +24 +24 комфорт 1012.1 994.4
21 27.06 ЮВ 3 10 км ясно +20.2 +9.7 51 +22 +22 комфорт 1011.7 993.8
00 28.06 Ю 3 10 км ясно +19.5 +10.0 54 +21 +21 комфорт 1011.6 993.7
03 28.06 З 2 10 км 3/0
[Ci fib]
+22.5 +13.5 57 +26 +27 жарко 1011.9 994.2 +18.3
06 28.06 С 3 10 км 3/0
[Ci fib]
+29.2 +12.8 36 +30 +39 жарко 1011.5 994.2
09 28.06 З 2 10 км 5/5
[Cu hum]
+31.6 +11.3 29 +32 +41 жарко 1011.0 993.8
12 28.06 В 3 10 км 5/5
[Cu hum]
+33.3 +9.8 24 +33 +37 жарко 1010.1 993.0
15 28.06 В 4 10 км 4/0
[Ac trans]
+32.1 +9.7 25 +31 +32 жарко 1009.5 992.3 +33.8
18 28.06 В 5 10 км 4/0
[Ac trans]
+25.4 +15.8 55 +29 +29 душно 1010.6 993.1

 

Местоположение метеостанции Волгоград (Волгоградская область, Россия): широта 48.78 долгота 44.37 высота над уровнем моря 134 м.

В архиве по умолчанию представлена погода в Волгограде за последнюю неделю. Архивные данные за месяц целиком и за предыдущие месяцы, начиная с января 2011 года, Вы можете получить, выбрав интересующий диапазон дат из раскрывающегося списка и нажав кнопку "Ввод!".

Внимание! Время в таблицах - всемирное. Для получения местного времени необходимо прибавить поправку, которая в Волгограде равна 3 ч.

Смотрите также архив погоды в соседних городах и на ближайших метеорологических станциях:

Погода в Волгограде город (Волгоградская область, Россия) (14 км)
Погода в Иловле (Волгоградская область, Россия) (64 км)
Погода в Калаче-на-Дону (Волгоградская область, Россия) (66 км)
Погода в Малых Дербетах (Калмыкия, Россия) (98 км)
Погода в Нижнем Чире (Волгоградская область, Россия) (105 км)
Погода в Ольховке (Волгоградская область, Россия) (122 км)
Погода в Фролове (Волгоградская область, Россия) (124 км)
Погода в Серафимовиче (Волгоградская область, Россия) (148 км)
Погода в Черный Яр (Астраханская область, Россия) (151 км)
Погода в Котельниково (Волгоградская область, Россия) (157 км)

Пояснения к столбцам:

Ветер - указаны скорость ветра в м/с - средняя за 10 мин, порывы в срок и между сроками (в фигурных скобках) и направление, откуда дует ветер: С - северный, СВ - северо-восточный, В - восточный, ЮВ - юго-восточный, Ю - южный, ЮЗ - юго-западный, З - западный, СЗ - северо-западный.
Видимость - горизонтальная дальность видимости в метрах или километрах. При видимости от 1 до 10 км при отсутствии осадков обычно наблюдается дымка, при ухудшении видимости до 1 км и менее - туман. В сухую погоду видимость может ухудшаться дымом, пылью или мглою.
Явления - указаны атмосферные явления, наблюдавшиеся в срок или в последний час перед сроком; фигурными скобками обозначены явления, наблюдавшиеся между сроками (за 1-3 часа до срока); квадратными скобками обозначены град или гололедные отложения с указанием их диаметра в мм.
Облачность - указаны через наклонную черту общая и нижняя облачность в баллах и высота нижней границы облаков в метрах; квадратными скобками обозначены формы облаков: Ci - перистые, Cs - перисто-слоистые, Cc - перисто-кучевые, Ac - высококучевые, As - высокослоистые, Sc - слоисто-кучевые, Ns - слоисто-дождевые, Cu - кучевые, Cb - кучево-дождевые. Подробнее классификацию облаков см. в Атласе облаков (PDF).
T - Температура воздуха - температура, измеренная на высоте 2 м над землей.
Td - Температура точки росы - температура, при понижении до которой содержащийся в воздухе водяной пар достигнет насыщения.
f - Относительная влажность воздуха - влажноcть воздуха, измеренная на высоте 2 м над землей.
Te - Эффективная температура - температура, которую ощущает одетый по сезону человек в тени. Характеристика душности погоды. При расчете учитывается влияние влажности воздуха и скорости ветра на теплоощущения человека.
Tes - Эффективная температура на солнце - температура, которую ощущает человек, с поправкой на солнечный нагрев. Характеристика знойности погоды. Зависит от высоты солнца над горизонтом, облачности и скорости ветра. Ночью, в пасмурную погоду, а также при ветре 12 м/с и более поправка равна нулю.
P - Атмосферное давление - приведенное к уровню моря атмосферное давление.
Po - Атмосферное давление - измеренное на уровне метеостанции атмосферное давление.
Tmin - Минимальная температура - минимум температуры воздуха на высоте 2 м над землей.
Tmax - Максимальная температура - максимум температуры воздуха на высоте 2 м над землей.
R - Количество осадков - Количество выпавших осадков за период времени, мм. При наведении курсора мыши на число - период времени, за который выпало указанное количество осадков.
R24 - Количество осадков - Количество выпавших осадков за 24 часа, мм.
S - Снежный покров - Высота снежного покрова, см. При наведении курсора мыши на число - состояние снежного покрова и степень покрытия местности в баллах.